TimeEST,TemperatureF,Dew PointF,Humidity,Sea Level PressureIn,VisibilityMPH,Wind Direction,Wind SpeedMPH,Gust SpeedMPH,PrecipitationIn,Events,Conditions,WindDirDegrees,DateUTC
12:35 AM,39.2,21.2,49,30.05,10.0,NNE,19.6,35.7,N/A,,Clear,20,2013-03-09 05:35:00
12:55 AM,39.2,21.2,49,30.05,10.0,NNE,19.6,27.6,N/A,,Clear,20,2013-03-09 05:55:00
1:15 AM,39.2,21.2,49,30.06,10.0,NNE,20.7,31.1,N/A,,Clear,20,2013-03-09 06:15:00
1:35 AM,39.2,21.2,49,30.06,10.0,North,17.3,28.8,N/A,,Clear,10,2013-03-09 06:35:00
1:55 AM,39.2,21.2,49,30.07,10.0,NNE,18.4,28.8,N/A,,Clear,20,2013-03-09 06:55:00
2:15 AM,39.2,21.2,49,30.06,10.0,NNE,16.1,29.9,N/A,,Clear,20,2013-03-09 07:15:00
2:55 AM,37.4,21.2,52,30.06,10.0,NNE,18.4,29.9,N/A,,Clear,20,2013-03-09 07:55:00
3:15 AM,37.4,21.2,52,30.06,10.0,North,17.3,27.6,N/A,,Clear,10,2013-03-09 08:15:00
3:55 AM,37.4,21.2,52,30.07,10.0,North,18.4,26.5,N/A,,Clear,10,2013-03-09 08:55:00
4:15 AM,37.4,19.4,48,30.08,10.0,NNE,18.4,27.6,N/A,,Clear,20,2013-03-09 09:15:00
4:35 AM,37.4,19.4,48,30.08,10.0,North,16.1,31.1,N/A,,Clear,10,2013-03-09 09:35:00
5:15 AM,35.6,19.4,52,30.10,10.0,NNE,18.4,26.5,N/A,,Clear,20,2013-03-09 10:15:00
5:35 AM,35.6,19.4,52,30.11,10.0,North,19.6,29.9,N/A,,Clear,10,2013-03-09 10:35:00
5:55 AM,35.6,19.4,52,30.12,10.0,NNE,20.7,28.8,N/A,,Clear,20,2013-03-09 10:55:00
6:15 AM,35.6,19.4,52,30.13,10.0,NNE,17.3,26.5,N/A,,Clear,20,2013-03-09 11:15:00
6:35 AM,35.6,19.4,52,30.13,10.0,North,17.3,28.8,N/A,,Clear,10,2013-03-09 11:35:00
6:55 AM,35.6,19.4,52,30.14,10.0,NNE,19.6,25.3,N/A,,Clear,20,2013-03-09 11:55:00
7:15 AM,35.6,21.2,56,30.15,10.0,NNE,15.0,28.8,N/A,,Clear,20,2013-03-09 12:15:00
7:35 AM,35.6,21.2,56,30.16,10.0,NNE,21.9,29.9,N/A,,Clear,20,2013-03-09 12:35:00
7:55 AM,37.4,21.2,52,30.16,10.0,NNE,18.4,23.0,N/A,,Clear,20,2013-03-09 12:55:00
8:15 AM,37.4,23.0,56,30.17,10.0,NNE,17.3,24.2,N/A,,Clear,20,2013-03-09 13:15:00
8:35 AM,37.4,23.0,56,30.17,10.0,NNE,17.3,27.6,N/A,,Clear,20,2013-03-09 13:35:00
8:55 AM,37.4,24.8,60,30.17,10.0,NE,17.3,27.6,N/A,,Clear,40,2013-03-09 13:55:00
9:15 AM,37.4,24.8,60,30.18,10.0,NNE,17.3,26.5,N/A,,Clear,30,2013-03-09 14:15:00
9:35 AM,37.4,24.8,60,30.18,10.0,NNE,16.1,26.5,N/A,,Clear,30,2013-03-09 14:35:00
10:15 AM,39.2,26.6,61,30.19,10.0,NNE,18.4,26.5,N/A,,Clear,30,2013-03-09 15:15:00
10:35 AM,39.2,26.6,61,30.18,10.0,NNE,16.1,26.5,N/A,,Clear,30,2013-03-09 15:35:00
10:55 AM,39.2,26.6,61,30.19,10.0,NNE,19.6,26.5,N/A,,Clear,30,2013-03-09 15:55:00
11:15 AM,41.0,28.4,61,30.19,10.0,NNE,19.6,24.2,N/A,,Clear,30,2013-03-09 16:15:00
11:35 AM,41.0,26.6,57,30.20,10.0,NE,12.7,23.0,N/A,,Clear,40,2013-03-09 16:35:00
11:55 AM,42.8,28.4,57,30.20,10.0,NNE,16.1,24.2,N/A,,Clear,30,2013-03-09 16:55:00
12:15 PM,42.8,28.4,57,30.20,10.0,NNE,13.8,23.0,N/A,,Clear,30,2013-03-09 17:15:00
12:35 PM,42.8,28.4,57,30.20,10.0,NNE,13.8,19.6,N/A,,Clear,30,2013-03-09 17:35:00
12:55 PM,42.8,28.4,57,30.19,10.0,NNE,16.1,23.0,N/A,,Clear,30,2013-03-09 17:55:00
1:15 PM,42.8,30.2,61,30.19,10.0,NE,11.5,21.9,N/A,,Clear,40,2013-03-09 18:15:00
1:35 PM,42.8,30.2,61,30.19,10.0,NE,13.8,21.9,N/A,,Clear,50,2013-03-09 18:35:00
1:55 PM,42.8,30.2,61,30.19,10.0,NE,15.0,21.9,N/A,,Clear,50,2013-03-09 18:55:00
2:15 PM,42.8,30.2,61,30.19,10.0,NE,16.1,24.2,N/A,,Clear,50,2013-03-09 19:15:00
2:35 PM,42.8,28.4,57,30.19,10.0,NE,15.0,21.9,N/A,,Clear,40,2013-03-09 19:35:00
2:55 PM,42.8,28.4,57,30.19,10.0,NE,13.8,21.9,N/A,,Clear,50,2013-03-09 19:55:00
3:15 PM,42.8,28.4,57,30.20,10.0,NE,11.5,24.2,N/A,,Clear,50,2013-03-09 20:15:00
3:35 PM,42.8,28.4,57,30.20,10.0,NE,11.5,18.4,N/A,,Clear,50,2013-03-09 20:35:00
3:55 PM,42.8,28.4,57,30.21,10.0,NE,13.8,21.9,N/A,,Clear,50,2013-03-09 20:55:00
4:15 PM,42.8,26.6,53,30.22,10.0,NE,11.5,19.6,N/A,,Clear,50,2013-03-09 21:15:00
4:35 PM,39.2,30.2,70,30.23,10.0,East,6.9,-,N/A,,Clear,80,2013-03-09 21:35:00
4:55 PM,39.2,30.2,70,30.24,10.0,East,8.1,-,N/A,,Clear,80,2013-03-09 21:55:00
5:15 PM,37.4,30.2,75,30.25,10.0,ENE,8.1,-,N/A,,Clear,70,2013-03-09 22:15:00
5:35 PM,37.4,30.2,75,30.25,10.0,East,8.1,-,N/A,,Clear,80,2013-03-09 22:35:00
5:55 PM,37.4,30.2,75,30.26,10.0,East,8.1,-,N/A,,Clear,80,2013-03-09 22:55:00
6:15 PM,37.4,30.2,75,30.26,10.0,ENE,9.2,-,N/A,,Clear,70,2013-03-09 23:15:00
6:35 PM,37.4,30.2,75,30.27,10.0,ENE,10.4,-,N/A,,Clear,70,2013-03-09 23:35:00
6:55 PM,37.4,30.2,75,30.27,10.0,ENE,11.5,-,N/A,,Clear,70,2013-03-09 23:55:00
7:35 PM,35.6,28.4,75,30.28,10.0,NE,5.8,-,N/A,,Clear,50,2013-03-10 00:35:00
7:55 PM,35.6,30.2,81,30.29,10.0,NE,10.4,-,N/A,,Clear,40,2013-03-10 00:55:00
8:15 PM,35.6,28.4,75,30.29,10.0,NE,9.2,16.1,N/A,,Clear,40,2013-03-10 01:15:00
8:35 PM,35.6,28.4,75,30.29,10.0,NE,10.4,-,N/A,,Clear,40,2013-03-10 01:35:00
8:55 PM,35.6,28.4,75,30.30,10.0,NE,9.2,-,N/A,,Clear,40,2013-03-10 01:55:00
9:15 PM,35.6,28.4,75,30.30,10.0,NE,9.2,-,N/A,,Clear,40,2013-03-10 02:15:00
9:55 PM,35.6,28.4,75,30.30,10.0,NE,9.2,17.3,N/A,,Clear,40,2013-03-10 02:55:00
10:15 PM,35.6,28.4,75,30.29,10.0,NE,9.2,-,N/A,,Clear,40,2013-03-10 03:15:00
10:35 PM,35.6,28.4,75,30.29,10.0,NE,11.5,17.3,N/A,,Clear,40,2013-03-10 03:35:00
10:55 PM,35.6,28.4,75,30.29,10.0,NE,9.2,17.3,N/A,,Clear,40,2013-03-10 03:55:00
11:15 PM,35.6,30.2,81,30.30,10.0,NE,11.5,16.1,N/A,,Clear,40,2013-03-10 04:15:00
11:35 PM,35.6,30.2,81,30.30,10.0,NE,9.2,-,N/A,,Clear,40,2013-03-10 04:35:00
11:55 PM,35.6,30.2,81,30.31,10.0,NNE,8.1,-,N/A,,Clear,30,2013-03-10 04:55:00